Regional Weather Roundup
Issued by NWS Upton, NY

Current Version | Previous Version | Graphics & Text | Print | Product List | Glossary Off
Versions: 1 2 3 4 5 6 7 8 9 10 11 12 13 14 15 16 17 18 19 20 21 22 23 24 25 26 27 28 29 30 31 32 33 34 35 36 37 38 39 40 41 42 43 44 45 46 47 48 49 50

000
ASUS41 KOKX 230705
RWROKX
REGIONAL WEATHER ROUNDUP
NATIONAL WEATHER SERVICE NEW YORK NY
300 AM EDT TUE SEP 23 2014

NOTE: "FAIR" INDICATES FEW OR NO CLOUDS BELOW 12,000 FEET WITH NO
SIGNIFICANT WEATHER AND/OR OBSTRUCTIONS TO VISIBILITY.

NYZ071-072-176-178-NJZ106-104-230800-
NEW YORK CITY METRO AREA


CITY           SKY/WX    TMP DP  RH WIND       PRES   REMARKS
CENTRAL PARK   CLEAR     54  38  54 CALM      30.23R
LAGUARDIA APRT CLEAR     55  40  56 NW15      30.19S
KENNEDY INTL   PTCLDY    54  38  54 NW12      30.20S
NEWARK/LIBERTY PTCLDY    51  40  65 W8        30.21S
BRNX BOT. GARD   N/A     52  37  58 S1        30.21R
TETERBORO      CLEAR     48  39  71 CALM      30.19S
$$

NYZ177-179-078>081-230800-
LONG ISLAND NEW YORK

CITY           SKY/WX    TMP DP  RH WIND       PRES   REMARKS
FARMINGDALE    CLEAR     52  40  63 CALM      30.19S
ISLIP          CLEAR     48  41  76 CALM      30.17R
SHIRLEY        CLEAR     46  40  79 CALM      30.19S
WESTHAMPTON    NOT AVBL
MONTAUK POINT    N/A     56  41  57 NW12      30.18S
$$

NYZ052-065-067-230800-
HUDSON VALLEY

CITY           SKY/WX    TMP DP  RH WIND       PRES   REMARKS
WHITE PLAINS   CLEAR     46  39  76 CALM      30.18S
NEWBURGH       CLEAR     45  41  87 CALM      30.20R
MONTGOMERY     CLEAR     42  38  85 S5        30.19R
POUGHKEEPSIE   CLEAR     41  39  93 CALM      30.19R
ALBANY         PTCLDY    46  41  82 NE3       30.20S
$$

NJZ001-105-106-008-010-013-015-019>022-104-230800-
NEW JERSEY

CITY           SKY/WX    TMP DP  RH WIND       PRES   REMARKS
NEWARK/LIBERTY PTCLDY    51  40  65 W8        30.21S
TETERBORO      CLEAR     48  39  71 CALM      30.19S
CALDWELL       CLEAR     48  38  68 SW3       30.21S
MORRISTOWN     CLEAR     43  39  87 CALM      30.21S
SOMERVILLE     CLEAR     42  39  89 CALM      30.20S
LINDEN         FAIR      54  44  69 NW6       30.22F
SUSSEX         CLEAR     41  38  89 CALM      30.22R
ANDOVER          N/A     41  39  93 CALM      30.22S
TRENTON        PTCLDY    48  40  73 CALM      30.21F
MILLVILLE      MOCLDY    50  43  77 NW5       30.21F
ATLANTIC CITY  PTCLDY    49  44  83 N6        30.21S
WRIGHTSTOWN    PTCLDY    49  42  76 NW3       30.20S
TOMS RIVER     PTCLDY    43  39  87 CALM      30.22S
BELMAR         PTCLDY    48  37  66 W3        30.20S
$$

PAZ047>061-062-071-230800-
EASTERN PENNSYLVANIA

CITY           SKY/WX    TMP DP  RH WIND       PRES   REMARKS
PHILADELPHIA   PTCLDY    55  40  56 NW5       30.24S
ALLENTOWN      CLEAR     45  38  76 SW5       30.23S
SCRANTON       CLEAR     44  39  82 CALM      30.23S
$$

CTZ002-004>006-009-010-012-RIZ004-006-007-MAZ004-011-015-230800-
SOUTHERN NEW ENGLAND
 IN CT

CITY           SKY/WX    TMP DP  RH WIND       PRES   REMARKS
BRADLEY INTL   CLEAR     50  40  68 SW3       30.16R
HARTFORD       CLEAR     50  40  68 SW10      30.17R
DANBURY        CLEAR     42  39  89 CALM      30.20R
WTRBRY/OXFORD  CLEAR     43  36  75 CALM      30.19R
BRIDGEPORT     CLEAR     50  42  74 W3        30.19R
MERIDEN        CLEAR     41  39  93 CALM      30.18R
NEW HAVEN      CLEAR     54  42  64 NW6       30.19R
CHESTER        FAIR      45  39  81 W3        30.18R
GROTON         CLEAR     49  40  71 CALM      30.17R
WILLIMANTIC    CLEAR     43  40  89 CALM      30.17R

 IN RI

CITY           SKY/WX    TMP DP  RH WIND       PRES   REMARKS
PROVIDENCE     CLEAR     46  40  79 W6        30.16R
BLOCK ISLAND   PTCLDY    54  37  54 N8        30.16R
WESTERLY       CLEAR     46  41  82 CALM      30.18R

 IN MA

CITY           SKY/WX    TMP DP  RH WIND       PRES   REMARKS
BOSTON         CLEAR     52  38  58 W6        30.14R
WORCESTER      CLEAR     45  37  73 NW5       30.14R
WESTFIELD      CLEAR     41  38  89 CALM      30.15S
PROVINCETOWN   CLEAR     55  39  54 NW16G22   30.13R
NANTUCKET      CLEAR     56  40  55 N16       30.12R
$$

ANZ330-335-338-340-345-350-353-355-230800-
COASTAL MARINE OBSERVATIONS


STATION/POSITION TIME  SKY/WX   TEMP    WIND        PRES    VSBY  WAVE
                                AIR SEA DIR/SP/G                  HT/PER
                 (UTC)          (F)     (DEG/KT/KT) (MB)    (MI)  (FT/S)
NY HARB ENTRANCE 0700            58 69  320/ 16/ 19 1022.6          3/ 9
4S FIRE IS       0700               69                N/A           3/ 9
20S FIRE ISLAND  0700            58 68   10/ 10/ 12 1022.3          4/ 9
23SW MTP         0700                                 N/A           5/ 9
HUDSON CANYON    0700            60 70  360/ 14/ 17 1021.5          5/ 6
EXECUTION ROCKS  0700            56 69  310/ 10/ 14   N/A
WESTERN LI SOUND 0700            56     290/ 10/ 14   N/A           0
CENTRAL LI SOUND 0600            56 69  310/ 12/ 17   N/A           2/ 4
EASTERN LI SOUND 0600            56 67  300/ 12/ 16   N/A
ROBBINS REEF     0700            54     290/ 11/ 13 1021.3
$$


>>>>>>>>>>>>>>>>>>>>>>>>>>>> KEY <<<<<<<<<<<<<<<<<<<<<<<<<<<
>                                                          <
>     SKY/WX - SKY CONDITION/PRESENT WEATHER               <
>     TMP    - TEMPERATURE IN FAHRENHEIT                   <
>     DP     - DEWPOINT IN FAHRENHEIT                      <
>     RH     - RELATIVE HUMIDITY IN PERCENT                <
>     WIND   - DIRECTION AND SPEED IN MPH                  <
>     PRES   - MEAN SEA LEVEL PRESSURE IN INCHES OF HG     <
>     WCI    - WIND CHILL INDEX                            <
>     VSB    - VISIBILITY IN MILES                         <
>     HX     - HEAT INDEX                                  <
>     TC     - TEMPERATURE IN CELSIUS                      <
>     VRB    - VARIABLE WIND DIRECTION                     <
>                                                          <
>>>>>>>>>>>>>>>>>>>>>>>>>>>> KEY <<<<<<<<<<<<<<<<<<<<<<<<<<<




USA.gov is the U.S. government's official web portal to all federal, state and local government web resources and services.